Location: Pallagorio
(39.3000°N, 16.9000°E)
Time: 15:59:29
(UTC+00:00)

Daily predictions for brighter satellites

Satellite Brightness Start Highest point End
(mag) Time Altitude Azimuth Time Altitude Azimuth Time Altitude Azimuth
Cosmos 1606 Rocket 3.9 16:24:16 10° NNW 16:28:39 72° W 16:33:04 10° S
Cosmos 1892 Rocket 3.6 16:25:17 10° S 16:29:37 88° WNW 16:33:58 10° N
Okean-O 4.1 16:28:43 10° ESE 16:31:26 16° ENE 16:34:10 10° NNE
CZ-2C R/B 3.8 16:28:04 10° SE 16:32:48 33° ENE 16:37:46 10° N
SJ 16-02 1.3 16:31:27 10° S 16:35:50 77° ESE 16:40:15 10° NNE
Cosmos 1538 Rocket 4.0 16:31:23 10° NNW 16:36:35 83° ENE 16:41:45 10° SSE
Meteor 2-1 Rocket 4.4 16:34:54 10° N 16:40:13 45° ENE 16:45:27 10° SSE
Aureole 2 Rocket 3.7 16:38:39 10° SW 16:41:27 36° WNW 16:44:21 10° N
Cosmos 44 3.3 16:40:46 10° SSW 16:45:24 65° ESE 16:50:23 10° NE
NOSS 2-1 (C) 3.1 16:43:51 10° SSW 16:47:14 53° ESE 16:50:30 10° NE
BREEZE-M DEB (TANK) 3.9 16:45:25 10° W 16:48:01 30° SSW 16:51:35 10° SSE
Cosmos 1703 3.8 16:46:43 10° SSE 16:50:17 37° E 16:53:53 10° NNE
Cosmos 1833 Rocket 4.2 16:47:24 10° NNE 16:50:35 15° NE 16:52:52 12° ENE
SKYMED 2 3.6 16:47:09 10° NNE 16:51:28 65° ESE 16:55:46 10° S
NOSS 2-1 (D) 2.9 16:49:42 10° SSW 16:53:08 65° ESE 16:56:19 11° NE
Cosmos 1092 Rocket 4.2 16:47:48 10° SSE 16:53:38 46° E 16:59:28 10° NNE
CZ-4B R/B 1.2 16:50:42 10° NNE 16:54:02 83° ESE 16:57:15 10° S
X-37B 1.8 16:52:02 10° WNW 16:54:56 31° N 16:57:10 14° NE
Cosmos 990 Rocket 4.1 16:50:36 10° S 16:55:41 57° ESE 17:00:47 10° NNE
Aureole 1 4.3 16:53:10 10° N 16:56:08 50° ENE 16:59:24 10° SSE
Meteor 2-13 Rocket 4.4 16:50:36 10° S 16:56:41 82° E 17:02:50 10° N
Cosmos 1844 3.9 16:51:03 10° SSW 16:56:42 77° WNW 17:02:26 10° NNE
Meteor 2-10 Rocket 3.8 16:53:13 10° NNW 16:58:38 75° W 17:03:46 10° S
YAOGAN 3 4.5 16:55:28 10° SSE 16:59:48 73° ENE 17:04:09 10° N
Cosmos 2082 Rocket 4.1 17:00:04 10° NE 17:01:07 10° NE 17:01:10 10° NE
Cosmos 1346 Rocket 4.3 17:02:24 10° SE 17:04:37 16° E 17:04:37 16° E
Cosmos 1844 Rocket 3.5 17:00:22 10° SW 17:05:52 52° WNW 17:11:24 10° NNE
Nadezhda 4 Rocket 4.1 17:00:26 10° S 17:06:41 82° W 17:12:55 10° N
MOS 1 Rocket 3.0 17:04:34 10° NNE 17:08:52 78° ESE 17:13:10 10° S
Cosmos 2058 Rocket 4.0 17:04:47 10° NNW 17:09:11 54° W 17:13:34 10° S
SAR-Lupe-1 4.4 17:07:08 10° NNE 17:10:37 44° E 17:14:02 10° S
EXPRESS MD2 4.0 17:03:58 10° NW 17:11:44 87° SW 17:15:21 11° SE
Cosmos 158 Rocket 4.0 17:06:31 10° NNW 17:11:55 83° ENE 17:17:19 10° SSE
Helios 1A Rocket 3.6 17:11:43 10° SE 17:15:24 32° ENE 17:19:06 10° N
Cosmos 1689 Rocket 2.1 17:15:06 23° NE 17:16:36 48° E 17:19:21 10° S
Aureole 3 2.9 17:15:36 10° NNW 17:18:43 70° W 17:21:39 10° S
Cosmos 1626 Rocket 3.7 17:14:47 10° SSW 17:19:09 76° W 17:23:35 10° N
Hubble Space Telescope 3.2 17:22:39 10° SW 17:25:14 16° S 17:27:48 10° SSE
Cosmos 2278 Rocket 2.6 17:20:07 10° S 17:25:20 40° ESE 17:28:30 22° NE
Cosmos 1328 3.7 17:24:26 10° S 17:28:25 83° E 17:32:25 10° N
CSL-04 Rocket 4.1 17:23:40 10° SE 17:28:39 40° ENE 17:33:44 10° N
Cosmos 405 4.3 17:27:36 10° N 17:29:22 24° NNE 17:29:22 24° NNE
Iridium 4 Rocket 3.4 17:30:25 10° N 17:35:53 69° E 17:40:51 10° S
Cosmos 1898 Rocket 3.8 17:32:01 10° SSW 17:37:16 70° WNW 17:42:31 10° NNE
Lacrosse 5 2.6 17:32:42 10° NW 17:37:37 53° SW 17:42:30 10° SSE
Cosmos 923 Rocket 4.5 17:32:42 10° NNW 17:37:58 64° WSW 17:43:10 10° S
Meteor 1-11 4.2 17:33:18 10° S 17:38:56 64° E 17:44:31 10° NNE
COSMO-SKYMED 1 4.1 17:35:28 10° N 17:39:27 35° WNW 17:43:23 10° SW
Cosmos 2026 Rocket 3.9 17:36:43 10° S 17:42:49 89° E 17:49:03 10° N
Cosmos 1758 Rocket 3.4 17:38:59 10° S 17:43:24 76° E 17:47:29 12° N
Cosmos 1680 Rocket 3.6 17:38:36 10° NNW 17:43:50 76° WSW 17:49:01 10° S
CREW DRAGON DEMO-1 DEB 2.9 17:41:53 10° WNW 17:44:38 66° WSW 17:44:38 66° WSW
Aureole 3 Rocket 2.3 17:42:26 10° N 17:45:38 75° E 17:49:33 10° S
Meteor 2-15 4.4 17:41:14 10° N 17:47:20 61° E 17:53:23 10° SSE
Meteor 2-8 Rocket 4.4 17:42:02 10° N 17:48:10 90° SE 17:54:17 10° S
Cosmos 2292 Rocket 4.4 17:43:23 10° SSE 17:48:31 39° ESE 17:48:31 39° ESE
ISS -1.1 17:47:45 10° NW 17:49:12 12° NNW 17:49:25 12° N
Cosmos 1553 Rocket 4.1 17:43:15 10° N 17:49:30 52° E 17:55:38 10° SSE
H-2A R/B 1.9 17:45:00 10° SSE 17:49:58 86° WSW 17:55:07 10° NNW
Cosmos 1340 3.7 17:47:16 10° SSW 17:50:51 44° WNW 17:54:28 10° N
Cosmos 2098 Rocket 4.3 17:45:15 10° S 17:52:25 87° E 17:59:52 10° N
ERS-2 3.8 17:51:25 10° N 17:54:42 33° WNW 17:57:58 10° SW
CZ-4 R/B 2.2 17:51:47 10° S 17:55:45 51° W 17:59:42 10° NNW
Cosmos 372 Rocket 3.9 17:52:04 10° S 17:57:11 64° ESE 17:58:34 46° NE
Cosmos 1655 Rocket 4.2 17:52:46 10° SSE 17:58:36 44° E 17:59:02 43° ENE
Cosmos-2242 2.8 17:54:52 10° N 18:03:36 - SSE 17:59:06 71° ENE
ARGOS 3.0 17:55:14 10° SSE 18:00:34 83° ENE 18:05:59 10° NNW
YAOGAN 1 3.4 18:00:44 10° S 18:04:55 50° W 18:09:08 10° NNW
Cosmos 1937 Rocket 4.2 18:01:05 10° SW 18:06:16 53° WNW 18:10:47 14° N
Okean-O 3.7 18:03:16 10° S 18:07:31 46° W 18:11:48 10° NNW
S3M 4.2 18:07:36 10° N 18:12:25 47° NE 18:12:25 47° NE
CZ-2C R/B 2.6 18:10:30 23° NNE 18:14:08 87° ESE 18:19:45 10° SSW
Cosmos 2344 4.4 18:06:52 10° NNW 18:16:39 74° NE 18:30:24 10° SE
Cosmos 1825 Rocket 4.0 18:13:01 10° SSW 18:17:19 61° W 18:18:30 43° NNW
Meteor 2-15 Rocket 4.3 18:12:17 10° N 18:18:29 86° E 18:24:37 10° S
Meteor 1-27 4.0 18:16:47 10° N 18:22:25 84° E 18:23:15 65° SSE
NOSS 3-1 (C) 4.3 18:18:03 10° NW 18:25:51 74° WSW 18:34:42 10° SSE
X-37B 3.8 18:29:10 10° NW 18:29:27 12° NW 18:29:27 12° NW
COSMOS 2406 3.3 18:27:49 10° NNW 18:33:37 75° WSW 18:34:25 64° SSW
Cosmos 1833 Rocket 2.7 18:29:36 10° NNW 18:34:40 73° NW 18:34:40 73° NW
USA 267 3.2 18:41:52 71° SSE 18:41:52 71° SSE 18:48:00 10° SW
USA 229 DEB 4.0 18:37:33 10° NW 18:44:58 74° WSW 18:47:27 46° SSE
USA 229 4.0 18:37:40 10° NW 18:45:04 75° WSW 18:47:26 48° SSE
Cosmos 2082 Rocket 3.7 18:40:40 10° NNW 18:43:03 25° N 18:43:03 25° N
NOSS 3-1 (A) 4.3 18:52:51 10° NW 19:00:40 71° WSW 19:02:47 54° S
Cosmos 2278 Rocket 3.8 19:04:37 10° WSW 19:09:29 29° WNW 19:10:25 27° NW
